Location: Rounton
(54.4000°N, 1.3500°W)
Time: 22:54:58
(UTC+00:00)

Vanguard 3 - Pass Details

Date: 07 December 2021
Orbit: 508 x 3260 km, 33.3° (Epoch: 17 January)

Event Time Altitude Azimuth Distance (km) Brightness Sun altitude
Rises 09:24:47 0° 270° (W) 6,924 11.5 6.3°
Reaches altitude 10° 09:35:00 10° 243° (WSW) 5,264 11.3 7.1°
Maximum altitude 09:38:16 11° 230° (SW) 4,907 11.3 7.4°
Drops below altitude 10° 09:41:15 10° 217° (SW) 4,716 11.4 7.6°
Sets 09:48:26 0° 186° (S) 4,950 12.2 8.2°
